#timestamp,LO_Frequency,Hit,StdDev 
1683745215.7,286047004.2,P
1683745235.5,286047002.0,P
1683745255.4,286047005.0,P
1683745275.2,286047007.5,Y
1683745295.0,286047003.9,P
1683745296.0,286047003.9,P
1683745315.8,286047003.1,P
1683745335.6,286047007.2,Y
1683745355.5,286047002.9,P
1683745375.3,286047004.4,P
1683745395.1,286047001.1,N
1683745415.9,286046996.8,N
1683745435.7,286047011.9,Y
1683745455.6,286046988.5,P
1683745475.4,286046990.6,N
1683745495.2,286046992.0,N
1683745515.1,286046993.8,N
1683745516.0,286046993.8,N
1683745535.8,286046994.5,N
1683745555.6,286046996.4,N
1683745575.5,286046994.1,N
1683745595.3,286046993.9,N
1683745615.2,286046993.5,N
1683745635.9,286046995.4,N
1683745655.7,286046995.3,N
1683745675.6,286046994.6,N
1683745695.4,286046999.6,N
1683745715.2,286046997.8,N
1683745735.1,286046999.4,N
1683745736.0,286046999.4,N
1683745755.8,286046995.5,N
1683745775.7,286046992.2,N
1683745795.5,286046993.8,N
1683745815.3,286046990.2,Y
1683745835.2,286046998.5,P
1683745855.0,286047003.4,N
1683745855.9,286047003.4,N
1683745875.7,286047005.4,N
1683745895.6,286047006.2,N
1683745915.4,286047006.9,N
1683745935.3,286047008.9,N
1683745955.1,286047013.8,Y
1683745956.0,286047013.8,P
1683745975.8,286047010.9,N
1683745995.7,286047016.3,P
1683746015.5,286047019.4,Y
1683746035.3,286047005.5,P
1683746055.2,286047004.8,N
1683746075.0,286047003.2,N
1683746075.9,286047003.2,N
1683746095.8,286046998.5,N
1683746115.6,286046999.4,N
1683746135.4,286046998.9,N
1683746155.3,286046996.5,N
1683746175.1,286046997.4,N
1683746195.8,286046998.8,N
1683746215.7,286047000.5,N
1683746235.5,286046998.8,N
1683746255.4,286046997.3,N
1683746275.2,286046996.7,N
1683746295.0,286046999.4,N
1683746295.9,286046999.4,N
1683746315.8,286046995.4,N
1683746335.6,286046996.9,N
1683746355.5,286046997.3,N
1683746375.3,286046999.6,N
1683746395.1,286046998.8,N
1683746415.9,286047001.2,N
1683746435.7,286047002.3,N
1683746455.5,286047001.8,N
1683746475.4,286047005.6,N
1683746495.2,286047002.1,N
1683746515.1,286047004.2,N
1683746516.0,286047004.2,N
1683746535.8,286047003.7,N
1683746555.6,286047007.1,N
1683746575.5,286047006.3,N
1683746595.3,286047008.2,N
1683746615.1,286047009.4,N
1683746635.9,286047010.3,N
1683746655.7,286047008.7,N
1683746675.6,286047009.1,N
1683746695.4,286047007.8,N
1683746715.2,286047010.6,N
1683746735.1,286047010.8,N
1683746736.0,286047010.8,N
1683746755.8,286047012.2,N
1683746775.6,286047010.0,N
1683746795.5,286047009.3,N
1683746815.3,286047013.6,N
1683746835.2,286047013.3,N
1683746855.9,286047013.7,N
1683746875.7,286047012.5,N
1683746895.6,286047013.0,N
1683746915.4,286047013.9,N
1683746935.2,286047011.2,N
1683746955.1,286047011.1,N
1683746956.0,286047011.1,N
1683746975.8,286047012.7,Y
1683746995.7,286047003.4,P
1683747015.5,286047004.0,N
1683747035.3,286047002.6,N
1683747055.2,286047003.8,N
1683747075.0,286046998.1,N
1683747075.9,286046998.1,N
1683747095.7,286047000.3,N
1683747115.6,286047000.4,N
1683747135.4,286047000.6,N
1683747155.3,286047000.7,N
1683747175.1,286047002.1,N
1683747176.0,286047002.1,N
1683747195.8,286047002.4,N
1683747215.7,286046996.2,N
1683747235.5,286046998.9,N
1683747255.3,286047005.5,N
1683747275.2,286047004.8,N
1683747295.0,286047004.6,N
1683747295.9,286047004.6,N
1683747315.8,286047004.5,N
1683747335.6,286047007.3,N
1683747355.4,286047012.1,Y
1683747375.3,286047007.8,P
1683747395.1,286047006.6,N
1683747415.8,286047004.5,N
1683747435.7,286047006.9,Y
1683747455.5,286047000.0,P
1683747475.4,286047002.2,N
1683747495.2,286047000.5,N
1683747515.0,286046999.4,N
1683747515.9,286046999.4,N
1683747535.8,286047001.1,N
1683747555.6,286047001.2,N
1683747575.5,286047002.5,N
1683747595.3,286047001.4,N
1683747615.1,286047004.1,N
1683747635.9,286047001.7,N
1683747655.7,286047004.1,N
1683747675.5,286047000.0,N
1683747695.4,286047004.3,N
1683747715.2,286047003.6,N
1683747735.0,286047003.7,N
1683747736.0,286047003.7,N
1683747755.8,286046999.9,N
1683747775.6,286046997.1,N
1683747795.5,286046997.4,N
1683747815.3,286046999.3,N
1683747835.2,286047002.3,N
1683747855.9,286047003.1,N
1683747875.7,286047007.6,Y
1683747895.6,286047003.1,P
1683747915.4,286047007.0,P
1683747935.3,286047006.5,N
1683747955.1,286047006.5,N
1683747956.0,286047006.5,N
1683747975.8,286047008.7,Y
1683747995.7,286047002.9,P
1683748015.5,286047003.3,N
1683748035.4,286047007.6,P
1683748055.2,286047003.6,N
1683748075.0,286047001.3,N
1683748075.9,286047001.3,N
1683748095.8,286047011.9,Y
1683748115.6,286046997.9,P
1683748135.4,286046995.2,N
1683748155.3,286046999.1,N
1683748175.1,286046997.2,N
1683748195.9,286046996.7,N
1683748215.7,286046995.0,N
1683748235.5,286046997.0,N
1683748255.4,286046998.4,N
1683748275.2,286046997.1,N
1683748295.0,286046997.6,N
1683748295.9,286046997.6,N
1683748315.8,286046997.0,N
1683748335.6,286046998.5,N
1683748355.5,286047001.0,N
1683748375.3,286047002.7,N
1683748395.1,286047001.3,N
1683748415.9,286047001.3,N
1683748435.7,286047004.8,N
1683748455.5,286047003.4,N
1683748475.4,286047002.5,N
1683748495.2,286047002.7,N
1683748515.1,286047005.6,N
1683748516.0,286047005.6,N
1683748535.8,286047004.0,N
1683748555.6,286047004.0,N
1683748575.5,286047005.2,N
1683748595.3,286047005.2,N
1683748615.1,286047003.6,N
1683748635.9,286047005.9,N
1683748655.7,286047004.5,N
1683748675.6,286047005.7,N
1683748695.4,286047003.1,N
1683748715.2,286047003.7,N
1683748735.1,286047000.4,N
1683748736.0,286047000.4,N
1683748755.8,286047001.1,N
1683748775.6,286046998.7,N
1683748795.5,286046996.2,N
